Regional Weather Roundup
Issued by NWS

Home | Current Version | Previous Version | Graphics & Text | Print | Product List | Glossary On
Versions: 1 2 3 4 5 6 7 8 9 10 11 12 13 14 15 16 17 18 19 20 21 22 23 24 25 26 27 28 29 30 31 32 33 34 35 36 37 38 39 40 41 42 43 44 45 46 47 48 49 50
000
ASUS43 KLMK 182002
RWRKY
KENTUCKY REGIONAL WEATHER ROUNDUP
NATIONAL WEATHER SERVICE LOUISVILLE KY
400 PM EDT FRI APR 18 2014

NOTE "FAIR" INDICATES FEW OR NO CLOUDS BELOW 12,000 FEET
WITH NO SIGNIFICANT WEATHER AND/OR OBSTRUCTIONS TO VISIBILITY.

KYZ001>023-026-027-061>063-070>075-182100-
WESTERN AND SOUTH CENTRAL KENTUCKY

CITY           SKY/WX    TMP DP  RH WIND       PRES   REMARKS
PADUCAH        SUNNY     74  39  28 CALM      30.21F
HENDERSON      SUNNY     70  43  37 N5        30.23F
OWENSBORO      MOSUNNY   71  35  26 VRB7      30.24F
HOPKINSVILLE   PTSUNNY   70  43  37 N5        30.22F
BOWLING GREEN  PTSUNNY   70  44  39 CALM      30.23F
GLASGOW        NOT AVBL
$$

KYZ024-025-028>034-038-045-046-053-182100-
NORTH CENTRAL KENTUCKY

CITY           SKY/WX    TMP DP  RH WIND       PRES   REMARKS
LOUISVILLE/SDF CLOUDY    72  37  28 N3        30.24F
LOUISVILLE/LOU PTSUNNY   72  39  30 CALM      30.24F
FORT KNOX      PTSUNNY   68  40  35 E1        30.23F
$$

KYZ035>037-039>044-047>052-055>060-089>105-182100-
NORTHEAST KENTUCKY

CITY           SKY/WX    TMP DP  RH WIND       PRES   REMARKS
LEXINGTON      PTSUNNY   69  41  36 N7        30.26F
COVINGTON      PTSUNNY   69  38  32 S8        30.25F
FRANKFORT      PTSUNNY   69  36  29 N5        30.25F
$$

KYZ054-064>069-076>088-106>120-182100-
SOUTHEAST KENTUCKY

CITY           SKY/WX    TMP DP  RH WIND       PRES   REMARKS
JACKSON        PTSUNNY   70  36  28 MISG      30.24F
LONDON         CLOUDY    69  40  34 CALM      30.24F
SOMERSET       NOT AVBL
MIDDLESBORO    NOT AVBL
MONTICELLO     CLOUDY    67  45  45 NE6       30.26F
$$




USA.gov is the U.S. government's official web portal to all federal, state and local government web resources and services.